Tracking 28790 objects as of 19-Apr-2024
HD Live streaming from Space Station
objects crossing your sky now

STARLINK-1742

Track STARLINK-1742 now!
10-day predictions
STARLINK-1742 is classified as:


NORAD ID: 46376
Int'l Code: 2020-062BD
Perigee: 553.3 km
Apogee: 555.4 km
Inclination: 53.1 °
Period: 95.6 minutes
Semi major axis: 6925 km
RCS: Unknown
Launch date: September 3, 2020
Source: United States (US)
Launch site: AIR FORCE EASTERN TEST RANGE (AFETR)
Your satellite tracking list
Your tracking list is empty




NASA's NSSDC Master Catalog

Two Line Element Set (TLE):
1 46376U 20062BD  24109.47182792 -.00002683  00000-0 -16137-3 0  9994
2 46376  53.0535 190.1275 0001505  68.2863 291.8286 15.06388000200906
Source of the keplerian elements: AFSPC